Location: Grange Verzio
(44.5000°N, 6.9833°E)
Time: 05:47:57
(UTC+00:00)

Cosmos 2333 Rocket - Pass Details

Date: 01 February 2023
Orbit: 838 x 864 km, 70.8° (Epoch: 21 March)

Event Time Altitude Azimuth Distance (km) Brightness Sun altitude
Rises 18:35:02 0° 189° (S) 3,375 5.5 -20.5°
Reaches altitude 10° 18:37:30 10° 185° (S) 2,446 4.7 -21.0°
Maximum altitude 18:42:57 54° 109° (ESE) 1,017 2.2 -21.9°
Enters shadow 18:43:59 47° 72° (ENE) 1,104 2.3 -22.1°
